Location: *
(42.0175°N, 9.4056°E)
Time: 00:00:15
(UTC+00:00)

ERS-1 Rocket - Pass Details

Date: 25 August 2019
Orbit: 753 x 758 km, 98.5° (Epoch: 19 September)

Event Time Altitude Azimuth Distance (km) Brightness Sun altitude
Exits shadow 19:38:50 18° 81° (E) 1,787 4.5 -16.3°
Maximum altitude 19:39:58 20° 63° (ENE) 1,719 4.5 -16.5°
Drops below altitude 10° 19:43:30 10° 18° (NNE) 2,287 5.6 -17.0°
Sets 19:46:21 0° 2° (N) 3,216 6.7 -17.5°
